Flag for Germany

Past Weather in Baden-Baden, Baden-Württemberg, Germany — Yesterday and Last 2 Weeks

Now
72 °F

Scattered showers. Partly sunny.


Feels Like: 74 °F
Forecast: 81 / 60 °F
Wind: 9 mph from Southwest

Location: Karlsruhe - Baden Wurttemberg
Current Time: Aug 14, 2020 at 11:29:40 am
Latest Report: Aug 14, 2020 at 10:50 am
Visibility: N/A
Pressure30.01 "Hg
Humidity: 73%
Dew Point: 63 °F
Location of Baden-BadenLocation

Past Weather in Baden-Baden — Graph

°F

Baden-Baden Temperature Yesterday

Maximum temperature yesterday: 82 °F (at 6:20 pm)
Minimum temperature yesterday: 66 °F (at 2:50 am)
Average temperature yesterday: 73 °F

High & Low Weather Summary for the Past Weeks

 TemperatureHumidityPressure
High99 °F (Aug 9, 3:50 pm)100% (Aug 3, 4:20 am)30.12 "Hg (Aug 3, 4:20 am)
Low50 °F (Aug 5, 6:50 am)19% (Jul 30, 5:50 pm)29.83 "Hg (Aug 3, 3:50 pm)
Average75 °F62%29.99 "Hg
* Reported Jul 30 10:20 am — Aug 14 10:20 am, Baden-Baden. Weather by CustomWeather, © 2020

Note: Actual official high and low records may vary slightly from our data, if they occured in-between our weather recording intervals... More about our weather records

Baden-Baden Weather History for the Previous 24 Hours

Scroll right to see more
 ConditionsComfort  
Time TempWeatherWind HumidityBarometerVisibility
10:20 am
Fri, Aug 14
72 °FScattered showers. Partly sunny.9 mph73%30.01 "HgN/A
9:50 am75 °FScattered showers. Partly sunny.5 mph65%30.01 "HgN/A
9:20 am73 °FPassing clouds.5 mph69%29.98 "HgN/A
8:50 am73 °FPassing clouds.9 mph65%29.98 "HgN/A
8:20 am73 °FPassing clouds.6 mph65%29.98 "HgN/A
7:50 am72 °FSunny.9 mph69%29.98 "Hg10 mi
7:20 am72 °FSunny.9 mph69%29.95 "Hg10 mi
6:50 am72 °FSunny.7 mph69%29.95 "Hg10 mi
6:20 am72 °FSunny.6 mph69%29.95 "Hg10 mi
5:50 am70 °FClear.8 mph73%29.95 "Hg10 mi
5:20 am72 °FPassing clouds.7 mph69%29.95 "HgN/A
4:50 am72 °FOvercast.6 mph69%29.95 "HgN/A
4:20 am68 °FOvercast.2 mph83%29.95 "HgN/A
3:50 am70 °FOvercast.2 mph78%29.95 "HgN/A
3:20 am70 °FMostly cloudy.1 mph78%29.95 "HgN/A
2:50 am70 °FMostly cloudy.2 mph78%29.92 "HgN/A
2:20 am68 °FOvercast.3 mph88%29.95 "HgN/A
1:50 am70 °FOvercast.2 mph78%29.95 "HgN/A
12:50 am70 °FClear.2 mph78%29.95 "Hg10 mi
12:20 am70 °FClear.2 mph73%29.95 "Hg10 mi
11:50 pm
Thu, Aug 13
70 °FClear.2 mph73%29.95 "Hg10 mi
11:20 pm68 °FClear.2 mph73%29.95 "Hg10 mi
10:50 pm68 °FClear.No wind78%29.95 "Hg10 mi
10:20 pm70 °FClear.2 mph69%29.92 "Hg10 mi
9:20 pm73 °FClear.3 mph61%29.92 "Hg10 mi
8:20 pm79 °FSunny.8 mph54%29.92 "Hg10 mi
7:50 pm81 °FPassing clouds.10 mph54%29.92 "HgN/A
7:20 pm81 °FSunny.2 mph54%29.92 "Hg10 mi
6:50 pm82 °FPassing clouds.5 mph51%29.92 "HgN/A
6:20 pm82 °FPassing clouds.5 mph55%29.92 "HgN/A
5:50 pm81 °FSunny.6 mph58%29.95 "Hg10 mi
5:20 pm81 °FPassing clouds.6 mph58%29.95 "HgN/A
4:50 pm79 °FPassing clouds.5 mph70%29.95 "HgN/A
4:20 pm77 °FPassing clouds.3 mph79%29.95 "HgN/A
3:50 pm77 °FSunny.2 mph74%29.98 "Hg10 mi
3:20 pm75 °FSunny.2 mph83%29.98 "Hg10 mi
2:20 pm79 °FSunny.2 mph65%29.98 "Hg10 mi
1:50 pm77 °FSunny.2 mph69%29.98 "Hg10 mi
1:20 pm77 °FSunny.1 mph69%29.98 "Hg10 mi
12:50 pm73 °FScattered clouds.3 mph78%29.98 "HgN/A
12:20 pm73 °FLight rain. Partly sunny.8 mph74%29.98 "HgN/A
11:50 am73 °FLight rain. Clear.7 mph74%29.98 "HgN/A
11:20 am77 °FLight rain. Clear.7 mph57%29.98 "HgN/A
Weather by CustomWeather, © 2020

See weather overview